Погода в Кактолге

Россия / Забайкальский край     52°46′46″N   119°35′34″E
темп.,
°C
ветер,
м/с
пор.,
м/с
влажн.,
%
обл.,
%
осадки,
мм/ч
давл.,
гПа
погр.,
м
26 января, вт
вт2600:00−23св51196100 0.8 1017683
03:00−25ссв41097100 1.5 1017569
06:00−26ссв3896100 0.4 1017655
09:00−27ссз2798100 0.6 1017657
12:00−24с3687100 0.3 10171080
15:00−23ссз3587100 0.5 1015977
18:00−24зсз2497100 0.1 1017134
21:00−24зсз2298100 0.3 101867
27 января, ср
ср2700:00−24ссз2795100 0.1 1019427
03:00−26сз3894100 0.1 1021534
06:00−27ссз3993100 0.0 1023574
09:00−28ссз2992100 0.1 1025642
12:00−27ссз3782100 0.0 1025726
15:00−26ссз3781100 0.1 1025835
18:00−27ссз2891100 0.0 1026527
21:00−29ссз2492100 0.1 1029118
28 января, чт
чт2800:00−30сз2489100 0.0 1029105
03:00−31сз2292100 0.0 103022
06:00−33сз129470 0.0 103019
09:00−32зсз119774 0.0 103119
12:00−26зсз128335 0.0 1029321
15:00−25зсз238053 0.0 1026574
18:00−30зсз119595 0.0 102719
21:00−32зюз119751 0.0 102819
29 января, пт
пт2900:00−34зюз11970 0.0 102719
03:00−35зюз11970 0.0 102719
06:00−36з11970 0.0 102619
09:00−36зсз009719 0.0 102619
12:00−30всв0085100 0.0 1024273
15:00−28всв1184100 0.0 1021436
18:00−31всв1197100 0.0 102319
21:00−34с119992 0.0 102519
30 января, сб
сб3000:00−36с1110067 0.0 102619
03:00−37с1110047 0.0 102819
06:00−38с111005 0.0 102819
09:00−39ссз11996 0.0 102918
12:00−31ссз018213 0.0 1028275
15:00−27зсз017646 0.0 1025538
18:00−33зюз019292 0.0 102519
21:00−35зюз119458 0.0 102619